Wind_Speed
9 4 6 9 9 10 10 16 21 26 27 27 31 26 24 19 25 23 38 36 31 24 21 20 22 21 17 16 10 10 8 8 9 8 7 6 4 3 2 1 3 4 3 4 6 7 8 9 10
11 8 5 8 13 3 11 11 19 28 28 33 33 24 22 22 28 30 36 31 32 24 20 19 20 19 17 10 10 8 9 10 14 14 12 12 10 7 5 4 1 1 2 3 4 4 4 5 6
14 8 3 5 3 11 11 15 22 27 33 35 29 25 19 23 30 35 32 30 32 23 19 18 19 17 14 12 10 10 11 13 17 20 20 20 21 18 14 13 10 6 3 1 1 1 3 3 6
15 12 6 4 8 7 9 18 25 29 32 31 22 21 15 26 35 34 30 29 30 22 17 17 17 14 13 14 12 13 14 21 29 26 25 22 19 19 17 14 13 11 10 8 4 3 1 4 7
16 15 11 8 5 6 18 25 24 27 25 23 22 19 19 29 36 35 29 27 26 20 15 16 14 16 17 18 17 18 23 26 28 29 31 27 24 23 22 21 17 12 9 10 9 10 8 2 3
19 18 17 13 13 23 24 23 26 28 20 17 21 20 21 21 37 36 30 25 25 17 13 13 12 16 18 19 21 26 28 31 32 33 33 33 29 26 34 35 34 32 23 19 19 19 20 16 10
19 19 17 19 17 11 20 25 25 19 16 18 18 23 14 31 35 33 26 24 24 14 11 11 10 15 16 18 20 26 26 25 29 32 39 41 38 41 42 43 39 36 34 33 32 32 29 24 19
23 21 22 20 14 13 30 30 23 23 25 23 20 20 22 26 33 29 22 24 20 11 9 9 10 13 14 17 23 27 28 26 27 30 36 40 45 42 45 43 46 45 42 49 50 41 37 37 33
24 22 23 22 18 12 28 20 22 26 26 20 20 19 24 28 31 26 21 25 16 7 8 9 9 12 11 15 20 19 17 23 27 28 34 36 41 41 45 51 52 54 43 32 38 42 34 35 44
23 21 21 20 19 14 6 15 29 17 24 23 23 23 23 28 28 23 19 22 12 3 9 10 11 12 11 16 14 17 17 22 24 26 29 32 39 41 44 42 49 51 57 51 45 48 44 29 34
22 21 20 21 17 19 7 18 22 32 32 27 29 22 26 31 22 19 17 22 10 6 12 13 12 14 15 17 17 15 17 22 26 23 26 32 36 42 41 48 49 47 46 57 52 41 34 24 29
30 29 28 27 24 26 28 26 25 30 26 22 21 27 28 31 20 17 13 21 9 9 15 15 13 16 21 16 21 23 26 27 26 25 29 29 25 18 32 39 47 44 46 36 34 35 39 35 29
36 33 31 32 31 29 28 24 5 31 23 26 27 31 30 22 17 14 13 17 12 10 18 18 15 16 21 17 19 22 26 28 30 29 29 30 32 30 33 37 23 16 35 37 36 30 34 32 34
40 39 37 35 33 31 30 27 25 31 32 32 30 32 26 14 13 12 13 14 15 10 21 18 16 16 19 16 13 17 22 25 26 26 26 29 30 32 31 34 32 26 28 30 31 30 30 33 35
45 43 41 41 36 34 31 31 29 23 27 30 29 23 13 11 10 11 10 13 14 7 21 20 17 16 18 17 13 14 19 23 24 24 25 30 25 29 31 30 28 28 27 26 28 30 29 30 32
47 45 44 44 39 37 35 33 27 20 31 26 19 11 12 8 9 11 9 12 13 4 19 23 20 15 17 17 16 14 15 18 20 20 21 21 20 26 27 27 29 30 28 28 27 30 32 34 36
44 45 48 44 41 37 34 29 26 23 23 20 14 10 11 8 8 12 8 11 11 3 16 26 23 18 17 19 17 13 14 17 19 19 18 19 18 23 15 24 27 28 29 30 31 34 35 37 38
47 48 49 44 41 37 31 22 27 24 27 20 14 13 12 7 5 10 9 9 8 2 15 24 24 21 18 20 19 14 13 15 17 17 16 17 15 15 18 21 25 27 28 30 33 35 34 36 39
52 49 46 43 40 36 32 22 26 29 36 33 24 19 13 6 4 7 8 6 7 2 12 22 21 23 17 19 20 16 13 13 13 15 16 15 14 14 14 18 23 23 25 27 31 33 34 35 39
58 53 50 48 42 37 34 30 29 28 25 24 23 23 15 8 4 7 8 7 3 1 10 18 22 24 20 18 20 18 15 12 10 11 13 14 15 14 13 16 19 19 21 23 26 28 32 35 39
62 60 59 55 47 39 36 38 42 37 12 23 26 24 18 12 7 7 9 12 4 3 9 15 19 24 27 20 20 19 16 14 11 8 10 13 13 13 12 14 14 17 18 21 25 28 30 34 36
64 64 66 62 54 44 42 44 43 46 32 31 26 26 21 17 11 8 9 13 9 6 10 17 20 23 29 28 19 17 17 15 13 10 6 9 11 11 10 10 10 14 15 19 23 26 29 33 33
70 69 69 69 63 52 45 44 45 40 34 28 22 37 29 22 15 10 10 11 10 8 7 16 20 24 26 29 29 21 19 19 15 12 7 7 7 9 7 6 7 10 13 16 20 23 27 29 30
79 77 73 72 70 58 52 49 46 43 43 46 50 35 37 27 20 14 14 11 11 9 7 12 16 21 26 29 30 30 23 22 19 14 10 7 6 7 5 4 4 8 11 14 17 20 23 26 28
82 82 78 78 76 64 64 58 54 52 50 51 45 39 38 31 24 18 18 14 15 14 9 8 12 18 27 29 33 32 29 27 22 19 14 8 6 4 4 3 3 5 8 12 14 17 19 22 26
87 84 84 81 78 72 73 64 61 61 58 58 53 43 34 35 29 24 23 20 19 20 18 13 11 14 23 29 30 31 30 29 25 22 17 12 6 4 1 1 3 3 5 9 11 12 15 18 22
91 94 83 85 84 78 78 76 74 67 64 62 57 51 38 33 32 34 29 26 24 21 21 13 13 14 18 24 26 27 28 30 27 23 21 17 12 8 4 3 4 4 4 5 9 10 11 14 18
98 94 94 92 87 83 81 81 79 76 70 67 62 56 48 60 40 45 37 31 29 26 21 22 17 16 17 21 25 24 26 27 27 26 23 20 16 14 9 6 7 6 5 3 5 8 8 10 13
97 97 100 100 95 88 84 84 83 85 80 74 70 64 56 47 44 60 40 35 32 28 27 26 25 20 20 22 29 29 29 30 30 28 26 24 21 19 15 10 10 10 7 5 5 6 6 7 9
107 104 106 106 102 95 87 91 94 89 87 81 74 70 66 64 53 50 43 42 37 34 32 27 27 27 26 25 26 31 31 28 29 31 30 28 26 23 19 16 14 14 11 8 9 9 6 7 8
Wind_Direction
208 225 355 14 19 67 109 316 306 302 305 312 326 333 342 350 352 338 342 341 345 344 350 354 354 348 346 342 359 27 32 44 43 51 39 31 33 43 51 252 230 227 227 236 238 239 240 242 244
216 260 314 16 25 317 205 258 282 291 299 309 322 329 340 346 351 339 340 346 348 344 357 6 0 353 356 23 51 28 59 46 49 45 46 50 51 56 60 43 33 257 256 254 251 250 246 235 223
217 236 294 351 38 147 234 273 277 285 298 306 319 326 345 349 347 349 346 349 350 350 6 8 6 4 25 56 50 68 57 65 65 72 72 68 60 51 51 46 40 37 35 353 327 280 274 237 231
217 222 238 296 334 191 226 240 290 295 297 304 323 325 329 348 352 344 349 350 350 358 13 15 14 25 46 61 63 77 81 83 78 77 67 55 54 53 49 39 36 32 43 56 76 52 272 238 246
201 215 226 221 275 222 245 271 289 292 298 307 322 323 326 331 345 344 349 348 352 359 22 24 32 50 60 63 76 86 89 91 79 71 69 66 66 63 55 49 45 39 43 63 53 36 17 2 253
209 215 227 230 226 254 268 272 283 290 302 319 327 337 331 331 341 340 347 348 356 1 32 34 51 62 61 64 78 95 100 87 77 79 78 72 64 60 60 61 63 61 64 60 55 53 49 46 50
221 216 214 220 223 259 273 277 282 293 295 320 332 337 329 313 332 340 350 350 353 359 47 48 61 70 63 73 83 100 97 92 81 87 81 74 71 67 61 65 62 64 67 67 66 63 56 49 35
229 226 233 223 261 289 288 274 268 273 285 298 309 325 327 326 332 341 350 346 354 358 63 68 69 75 70 83 98 103 95 93 88 88 82 75 74 76 73 70 66 64 72 78 70 63 62 54 47
228 219 225 232 233 225 246 270 281 291 294 300 309 319 324 330 332 337 347 342 348 11 81 91 87 77 94 108 102 113 95 92 90 90 85 77 71 77 72 70 65 59 68 66 50 55 66 69 43
222 219 221 227 228 220 254 270 295 275 289 294 297 303 321 330 332 335 353 345 348 70 107 101 96 90 113 129 107 108 100 101 94 93 89 77 70 67 69 65 63 59 63 71 68 61 58 63 22
225 221 212 206 210 217 169 255 239 275 293 298 295 310 326 326 327 330 354 356 351 137 130 112 102 102 118 116 95 111 116 104 100 107 92 82 81 69 69 71 64 58 58 62 60 58 53 58 53
222 218 211 214 217 229 239 254 270 278 292 301 286 316 320 323 321 323 345 351 359 157 145 133 112 111 122 115 96 111 114 106 100 99 89 80 74 67 60 61 54 53 58 33 48 55 59 61 58
229 226 224 222 223 232 241 250 209 254 270 274 268 301 309 308 316 328 333 343 357 168 160 141 130 120 133 119 94 94 101 101 95 94 91 84 79 72 59 58 59 51 53 61 65 57 58 52 48
235 233 230 232 234 238 243 247 238 257 272 278 284 289 293 290 316 334 326 341 354 176 172 155 140 131 135 133 106 97 96 96 96 92 88 78 76 73 66 60 48 64 54 51 53 54 49 43 40
238 238 236 236 238 242 247 250 257 272 289 266 280 275 259 284 321 339 324 338 346 183 180 175 153 144 136 130 114 101 100 95 89 93 85 99 80 78 71 64 64 62 66 59 53 56 54 47 39
237 239 238 242 244 244 245 253 256 252 220 274 271 228 260 291 322 338 317 342 342 188 184 184 169 156 145 132 122 114 103 94 91 99 96 82 76 71 72 69 66 63 62 64 56 51 45 45 40
232 235 240 240 242 243 245 251 249 241 233 253 234 235 258 281 323 334 314 336 338 199 186 189 181 170 155 137 131 117 104 95 98 98 102 100 82 84 75 66 61 61 64 62 59 53 45 42 38
228 233 237 237 238 239 240 236 242 223 221 243 262 245 250 265 316 327 307 337 338 220 188 189 187 176 165 150 141 134 116 102 97 104 103 104 97 81 74 64 58 59 59 60 55 49 44 41 39
232 232 236 235 234 232 230 218 233 206 194 232 253 240 241 243 301 323 296 329 1 178 186 188 189 181 174 162 153 146 135 116 102 98 99 104 110 87 75 63 60 58 60 54 50 45 44 42 40
232 231 232 235 230 226 221 207 202 191 203 236 226 235 224 226 267 299 290 272 358 199 184 189 191 189 187 179 168 158 148 135 119 96 100 109 109 101 71 68 58 54 53 52 49 48 47 41 40
232 231 231 231 231 223 212 199 212 181 170 246 226 229 221 217 234 282 301 250 267 232 188 201 197 191 197 191 177 172 163 155 144 124 105 107 112 109 88 79 58 53 50 48 44 46 46 41 40
232 230 232 232 231 223 214 203 200 213 200 223 235 235 226 227 223 254 285 269 233 248 225 198 203 200 197 201 186 180 179 175 168 157 128 107 106 103 97 85 62 50 44 45 44 43 42 41 42
233 231 229 231 230 225 217 208 205 211 204 216 199 251 233 227 226 237 263 270 227 226 238 212 209 206 202 200 208 205 198 188 180 176 164 133 98 90 102 103 60 47 43 37 41 41 42 42 44
232 232 229 228 228 223 222 217 215 208 203 196 205 232 233 226 226 225 248 250 233 222 218 240 221 210 203 202 205 212 212 202 186 184 190 163 123 100 72 73 65 44 40 34 37 39 42 41 43
232 231 229 228 227 220 224 222 218 214 212 212 205 218 228 228 229 225 236 242 241 226 211 227 237 231 200 196 202 208 210 206 195 191 194 188 167 134 99 43 26 24 28 25 25 35 41 41 43
233 232 229 227 227 220 222 220 222 219 215 217 216 220 221 228 230 231 234 235 239 239 237 213 215 221 214 195 197 202 207 203 202 201 203 208 197 202 165 24 9 23 17 20 14 29 38 39 42
231 232 230 229 226 221 218 219 224 221 218 219 217 218 217 244 240 240 230 228 234 234 238 218 219 212 221 206 198 200 203 205 206 207 212 219 223 225 229 274 310 344 352 8 359 15 33 38 35
231 229 230 230 227 221 220 218 221 225 221 219 221 217 207 207 246 243 236 230 227 229 233 221 208 219 219 220 206 208 207 210 212 214 216 221 226 236 240 256 270 289 297 311 333 351 9 29 29
229 230 228 230 227 223 218 219 221 225 223 220 218 219 213 207 203 241 239 238 235 231 226 228 218 213 219 215 211 202 208 212 214 218 222 226 227 234 243 252 254 261 270 279 283 316 342 347 8
228 225 227 226 226 223 219 220 221 222 224 222 218 219 217 207 213 228 238 237 235 231 229 225 222 218 217 220 217 207 202 211 218 220 224 227 229 232 237 250 249 247 256 259 266 276 298 306 318
Height
11014 11016 11018 11017 11017 11017 11014 11012 11014 11014 11013 11012 11010 11008 11005 11003 11000 10995 10990 10984 10976 10971 10967 10964 10960 10957 10953 10950 10948 10946 10945 10943 10943 10940 10939 10938 10936 10935 10933 10933 10931 10930 10929 10927 10927 10925 10924 10924 10924
11013 11017 11018 11019 11017 11015 11016 11018 11017 11015 11013 11013 11011 11008 11005 11003 10998 10995 10989 10982 10976 10971 10967 10964 10961 10958 10954 10951 10949 10949 10947 10946 10944 10943 10941 10940 10938 10936 10934 10932 10930 10928 10927 10926 10925 10924 10923 10923 10923
11013 11016 11018 11019 11019 11019 11017 11016 11015 11016 11014 11012 11011 11008 11005 11002 10998 10994 10988 10983 10977 10971 10968 10965 10962 10959 10956 10954 10952 10951 10950 10949 10948 10946 10944 10942 10940 10937 10935 10933 10930 10929 10927 10925 10924 10923 10922 10923 10923
11012 11015 11018 11019 11019 11014 11009 11015 11016 11017 11016 11012 11010 11007 11005 11002 10998 10994 10988 10983 10978 10972 10969 10967 10964 10961 10958 10957 10956 10955 10954 10954 10952 10950 10950 10946 10943 10941 10938 10934 10931 10928 10925 10924 10923 10921 10921 10921 10921
11011 11014 11017 11019 11022 11013 11015 11016 11014 11015 11013 11012 11009 11005 11004 11001 10997 10994 10989 10984 10979 10974 10971 10969 10967 10964 10962 10959 10958 10959 10959 10958 10957 10956 10954 10952 10950 10945 10939 10934 10931 10927 10925 10924 10923 10923 10922 10920 10920
11009 11011 11014 11019 11018 11016 11016 11015 11013 11013 11012 11010 11007 11005 11004 11000 10998 10994 10989 10985 10980 10976 10974 10972 10970 10968 10965 10964 10962 10963 10963 10964 10963 10963 10961 10958 10954 10949 10943 10937 10933 10929 10928 10928 10928 10926 10925 10924 10922
11007 11009 11011 11013 11014 11015 11015 11014 11012 11010 11009 11008 11006 11005 11003 11001 10998 10994 10990 10987 10982 10978 10977 10975 10974 10972 10969 10967 10967 10968 10969 10969 10969 10969 10968 10964 10958 10952 10946 10940 10937 10933 10931 10930 10929 10928 10928 10928 10926
11003 11008 11008 11011 11015 11020 11012 11010 11011 11009 11007 11005 11005 11004 11001 11000 10997 10994 10991 10988 10982 10980 10979 10977 10977 10975 10974 10973 10973 10974 10974 10975 10975 10974 10972 10968 10962 10957 10952 10947 10945 10943 10940 10937 10936 10933 10931 10931 10929
10999 11003 11005 11008 11015 11021 11014 11013 11011 11009 11006 11003 11003 11004 11001 10999 10997 10994 10992 10988 10983 10981 10982 10980 10980 10979 10979 10979 10979 10979 10979 10980 10980 10978 10973 10970 10967 10963 10959 10955 10953 10951 10948 10946 10944 10939 10934 10931 10933
10995 10999 11002 11005 11009 11017 11012 11015 10991 10995 11005 11002 11003 11003 11001 10998 10996 10994 10992 10989 10984 10983 10984 10984 10983 10983 10983 10984 10983 10983 10983 10983 10983 10982 10978 10976 10974 10971 10967 10963 10960 10960 10957 10957 10952 10946 10937 10937 10940
10992 10994 10999 11002 11006 11007 11000 11010 11016 11008 11005 11001 11002 11004 11001 10999 10996 10993 10992 10989 10985 10984 10985 10987 10986 10986 10987 10990 10988 10987 10986 10986 10985 10985 10982 10981 10976 10975 10974 10969 10969 10967 10966 10965 10963 10955 10945 10944 10954
10986 10989 10992 10996 11000 11003 11007 11012 11015 11011 11005 11001 11000 11003 11001 10999 10996 10993 10992 10990 10986 10986 10986 10988 10989 10989 10991 10994 10993 10990 10990 10989 10988 10988 10987 10985 10982 10982 10980 10975 10974 10969 10972 10976 10980 10974 10963 10964 10962
10979 10983 10987 10990 10994 10997 11001 11006 11010 10996 11004 11001 11001 11001 11000 10998 10996 10992 10991 10990 10987 10987 10988 10990 10992 10993 10995 10996 10997 10996 10995 10994 10993 10992 10990 10992 10991 10988 10985 10982 10982 10981 10979 10983 10985 10984 10977 10974 10966
10972 10977 10982 10986 10989 10992 10995 10998 11005 11005 11000 10996 10996 10999 10998 10997 10995 10992 10991 10990 10988 10987 10989 10991 10993 10995 10996 10998 11000 11000 10999 10999 10997 10997 10996 10995 10997 10993 10992 10989 10994 10990 10984 10985 10986 10985 10980 10974 10970
10962 10969 10976 10980 10986 10988 10991 10990 10995 11003 10993 10999 10996 10993 10995 10995 10994 10991 10991 10990 10988 10987 10989 10991 10994 10996 10997 10999 11001 11003 11002 11003 11002 11002 11001 10998 11000 10997 10994 10994 10993 10994 10994 10991 10991 10987 10982 10977 10973
10954 10960 10967 10973 10979 10983 10985 10986 10990 10999 10999 10994 10992 10991 10992 10993 10992 10991 10991 10990 10988 10986 10988 10991 10994 10997 10998 10999 11002 11004 11006 11006 11006 11007 11006 11004 11002 11002 11000 11000 10998 10999 10999 10997 10995 10989 10985 10980 10977
10945 10948 10956 10965 10971 10975 10979 10983 10987 10991 10993 10992 10992 10989 10990 10991 10991 10991 10990 10990 10988 10986 10987 10990 10994 10997 10999 11001 11003 11006 11008 11009 11010 11011 11011 11010 11008 11006 11009 11004 11003 11003 11002 10998 10996 10991 10989 10984 10981
10935 10939 10946 10956 10961 10967 10973 10979 10978 10985 10992 10992 10989 10990 10990 10991 10991 10991 10990 10990 10987 10986 10986 10989 10993 10998 11000 11001 11004 11007 11010 11012 11013 11014 11014 11013 11012 11012 11011 11009 11007 11005 11003 11001 10998 10995 10994 10991 10986
10928 10933 10939 10947 10953 10959 10965 10973 10972 10978 10989 10991 10988 10989 10990 10991 10991 10991 10990 10990 10988 10986 10986 10990 10993 10998 11001 11002 11004 11007 11011 11013 11016 11017 11017 11016 11016 11016 11015 11013 11011 11010 11008 11005 11003 11001 10998 10996 10991
10916 10925 10929 10935 10943 10951 10957 10965 10969 10973 10982 10981 10983 10987 10988 10989 10990 10991 10990 10990 10988 10987 10987 10990 10993 10996 11000 11003 11004 11007 11011 11014 11017 11019 11020 11019 11019 11018 11019 11017 11016 11017 11015 11012 11009 11007 11004 11000 10994
10903 10912 10916 10923 10934 10943 10949 10956 10960 10968 10974 10978 10981 10984 10987 10987 10988 10989 10990 10989 10988 10988 10988 10990 10992 10994 10999 11002 11005 11007 11010 11013 11017 11019 11022 11021 11021 11021 11021 11020 11021 11020 11019 11016 11012 11010 11007 11004 10999
10887 10896 10903 10911 10924 10935 10940 10947 10955 10958 10968 10979 10978 10981 10984 10984 10985 10987 10988 10988 10988 10987 10987 10988 10990 10993 10996 11001 11005 11008 11010 11013 11016 11019 11021 11023 11023 11022 11022 11022 11022 11021 11020 11018 11016 11013 11010 11007 11004
10872 10878 10888 10897 10911 10923 10933 10941 10950 10956 10965 10966 10961 10971 10980 10981 10981 10983 10986 10987 10987 10986 10986 10986 10987 10989 10993 10997 11003 11006 11009 11012 11016 11018 11021 11023 11024 11024 11024 11024 11024 11022 11021 11020 11018 11016 11013 11011 11009
10851 10860 10873 10882 10895 10912 10924 10934 10941 10950 10956 10958 10961 10967 10973 10975 10978 10980 10983 10985 10987 10985 10984 10986 10986 10987 10989 10993 10997 11002 11007 11011 11015 11018 11020 11022 11023 11024 11026 11025 11024 11024 11023 11022 11020 11018 11016 11014 11012
10833 10843 10857 10864 10877 10906 10910 10918 10931 10936 10945 10948 10951 10958 10964 10971 10976 10977 10979 10983 10985 10985 10983 10984 10986 10986 10986 10988 10993 10998 11003 11008 11013 11016 11019 11022 11023 11024 11025 11026 11026 11025 11025 11024 11023 11021 11020 11017 11015
10811 10822 10834 10849 10863 10885 10892 10907 10917 10920 10929 10936 10943 10952 10957 10965 10971 10974 10974 10979 10981 10982 10982 10982 10984 10985 10986 10986 10989 10995 11000 11005 11009 11014 11018 11021 11023 11025 11025 11026 11026 11026 11026 11025 11024 11023 11022 11021 11018
10796 10796 10825 10829 10842 10863 10876 10885 10893 10907 10916 10923 10934 10945 10956 10965 10969 10969 10969 10973 10977 10978 10979 10980 10982 10984 10985 10987 10990 10993 10998 11002 11006 11011 11015 11018 11022 11024 11025 11025 11025 11025 11025 11026 11025 11024 11023 11022 11021
10765 10788 10795 10805 10823 10843 10857 10870 10884 10890 10904 10913 10922 10937 10954 10965 10957 10965 10966 10969 10971 10973 10975 10977 10978 10981 10984 10987 10988 10992 10996 11000 11003 11008 11011 11015 11019 11021 11023 11024 11025 11025 11025 11025 11026 11025 11023 11022 11021
10748 10758 10768 10779 10798 10820 10841 10853 10868 10871 10883 10897 10909 10920 10935 10946 10957 10955 10963 10965 10967 10970 10969 10972 10974 10977 10980 10982 10985 10986 10990 10994 10999 11004 11007 11011 11015 11017 11020 11022 11024 11024 11023 11023 11024 11024 11024 11022 11021
10702 10727 10736 10748 10772 10797 10821 10825 10830 10855 10868 10881 10896 10909 10922 10933 10938 10950 10954 10954 10959 10965 10965 10967 10970 10971 10975 10979 10983 10984 10986 10991 10994 10998 11001 11006 11009 11013 11016 11018 11021 11021 11021 11020 11021 11022 11023 11022 11021